Location: Cruquius
(52.3348°N, 4.6319°E)
Time: 04:13:42
(UTC+00:00)

Meteor 2-12 Rocket - Pass Details

Date: 12 May 2021
Orbit: 935 x 958 km, 82.5° (Epoch: 14 June)

Event Time Altitude Azimuth Distance (km) Brightness Sun altitude
Rises 21:08:44 0° 349° (NNW) 3,617 8.8 -12.2°
Reaches altitude 10° 21:11:14 10° 350° (N) 2,665 7.9 -12.5°
Maximum altitude 21:17:21 83° 79° (E) 951 4.4 -13.0°
Enters shadow 21:22:13 17° 167° (SSE) 2,203 5.8 -13.4°
